Regional Weather Roundup
Issued by NWS

Home | Current Version | Previous Version | Graphics & Text | Print | Product List | Glossary On
Versions: 1 2 3 4 5 6 7 8 9 10 11 12 13 14 15 16 17 18 19 20 21 22 23 24 25 26 27 28 29 30 31 32 33 34 35 36 37 38 39 40 41 42 43 44 45 46 47 48 49 50
000
ASUS43 KMPX 290901
RWRMN
WEATHER ROUNDUP FOR MINNESOTA
NATIONAL WEATHER SERVICE TWIN CITIES/CHANHASSEN MN
300 AM CST MON DEC 29 2014


NOTE: "FAIR" INDICATES FEW OR NO CLOUDS BELOW 12,000 FEET WITH NO
SIGNIFICANT WEATHER AND/OR OBSTRUCTIONS TO VISIBILITY. N/A MEANS
CURRENT SKY AND/OR WEATHER CONDITIONS ARE NOT AVAILABLE.

MNZ060>063-068>070-291000-
   Twin Cities Metro

CITY           SKY/WX    TMP DP  RH WIND       PRES   REMARKS
TWIN CITIES    CLOUDY     8  -2  63 N13       30.43R WCI  -8
ST PAUL        CLOUDY     7  -2  66 N5        30.45R WCI  -2
CRYSTAL        CLOUDY     8  -2  63 N9        30.42R WCI  -5
BLAINE         CLOUDY     7   1  78 NW7       30.42R WCI  -5
LAKEVILLE      CLOUDY     9   0  66 N6        30.40R WCI  -1
EDEN PRAIRIE   CLOUDY     9  -2  61 N8        30.41R WCI  -3
SOUTH ST PAUL  CLOUDY     9  -1  63 N5        30.43R WCI   1
LAKE ELMO      CLOUDY     7   0  72 N5        30.42S WCI  -2
$$
MNZ001>005-007-008-013>017-022>024-027-028-291000-
   Northwest Minnesota

CITY           SKY/WX    TMP DP  RH WIND       PRES   REMARKS
BEMIDJI        PTCLDY   -12 -17  81 NW6       30.45R WCI -26
HALLOCK        PTCLDY   -15 -20  76 N9        30.59R WCI -33
ROSEAU         MOCLDY   -13 -18  77 W7        30.53R WCI -29
WARROAD        MOCLDY   -15 -20  76 W3        30.51R
THIEF RVR FALL PTCLDY   -11 -18  70 NW7       30.53R WCI -26
CROOKSTON      PTCLDY    -9 -15  77 N10       30.59R WCI -28
FOSSTON        PTCLDY   -15 -18  84 CALM      30.51R
DETROIT LAKES    N/A     -6  -9  84 N10       30.48R WCI -23
MOORHEAD       CLEAR     -6  -9  84 N14       30.55S WCI -26
PARK RAPIDS    PTCLDY    -7 -12  79 NW8       30.43R WCI -23
MAHNOMEN       FAIR      -8 -13  79 N8        30.50R WCI -25
$$
MNZ006-009>011-018-025>026-291000-
   North Central Minnesota

CITY           SKY/WX    TMP DP  RH WIND       PRES   REMARKS
BAUDETTE       PTCLDY   -14 -20  74 NW12      30.47R WCI -35
FLAG ISLAND    PTCLDY   -17 -20  83 NW12      30.48R WCI -38
INTL FALLS     PTCLDY   -14 -19  79 NW6       30.44R WCI -28
WASKISH        PTCLDY   -11 -17  77 CALM      30.47R
BIG FORK       CLEAR     -9 -17  70 CALM      30.43R
LONGVILLE      CLEAR     -6  -9  84 NW3       30.43S
GRAND RAPIDS   CLEAR     -6 -11  77 NW13      30.40R WCI -25
CRANE LAKE     CLEAR    -11 -15  84 CALM      30.45R
ORR            CLEAR    -11 -17  77 NW3       30.38R
COOK           CLEAR    -11 -17  77 CALM      30.41R
WALKER         FAIR      -9 -13  80 NW5       30.44R WCI -20
$$
MNZ012-019>021-037-291000-
   Northeast Minnesota

CITY           SKY/WX    TMP DP  RH WIND       PRES   REMARKS
DULUTH         CLEAR     -5 -11  75 NW10      30.36R WCI -23
ELY            CLEAR    -15 -18  84 CALM      30.37R
HIBBING        CLOUDY    -7 -14  71 NW9       30.40R HAZE    WCI -24
EVELETH        LGT SNOW  -6 -13  71 NW6       30.40R WCI -18
DULUTH HARBOR  CLEAR      1  -8  66 NW7       30.47R WCI -11
TWO HARBORS    CLEAR     -2  -9  71 N3        30.37R
SILVER BAY     CLEAR     -4 -11  71 CALM      30.36R
GRAND MARAIS     N/A     -2 -10  69 CALM      30.39R
G MARAIS ARPRT PTCLDY   -11 -18  70 NW8       30.23R WCI -28
$$
MNZ029>031-032-039>041-046>048-054>057-064-291000-
   West Central Minnesota

CITY           SKY/WX    TMP DP  RH WIND       PRES   REMARKS
FERGUS FALLS   CLEAR     -4 -11  71 N6        30.53R WCI -16
WHEATON        CLEAR     -6  -9  84 NW13      30.53R WCI -25
MORRIS         PTCLDY     0  -6  78 N15       30.45R WCI -20
ALEXANDRIA     CLEAR      2  -4  76 N10       30.42R WCI -14
ELBOW LAKE     FAIR      -2  -6  84 N10       30.46R WCI -19
WADENA         CLEAR     -4  -8  84 NW7       30.44R WCI -18
GLENWOOD       PTCLDY     1  -4  78 N8        30.42R WCI -12
APPLETON       PTCLDY     3  -2  78 N16       30.46R WCI -16
BENSON         PTCLDY     5   0  78 N10       30.44R WCI -10
ORTONVILLE     PTCLDY     0  -8  71 N15       30.47R WCI -20
MADISON        PTCLDY     7   1  78 N12       30.46R WCI  -9
WILLMAR        FAIR      10   1  67 N12       30.42R WCI  -4
$$
MNZ033>034-036-042>043-049>051-058-059-291000-
   Central Minnesota

CITY           SKY/WX    TMP DP  RH WIND       PRES   REMARKS
ST CLOUD       PTCLDY     7  -3  64 N7        30.42R WCI  -5
SAUK CENTRE    FAIR       1  -4  78 N7        30.43R WCI -11
PAYNESVILLE    MOCLDY     4  -1  79 NW7       30.43R WCI  -8
AITKIN         CLEAR      0  -8  71 NW5       30.42R WCI -10
PINE RIVER     CLEAR     -4  -9  77 NW5       30.45S WCI -15
BRAINERD       CLEAR     -1  -6  79 N6        30.43R WCI -13
STAPLES        CLEAR     -4  -8  84 NW7       30.44R WCI -18
LONG PRAIRIE   FAIR       0  -6  78 N10       30.42R WCI -17
LITTLE FALLS   CLEAR      1  -4  78 CALM      30.44S
LITCHFIELD     CLOUDY     9   3  78 N6        30.41R WCI  -1
BUFFALO        CLOUDY     8   1  72 N5        30.44R WCI  -1
MAPLE LAKE     CLOUDY     8   2  78 N9        30.42R WCI  -5
$$
MNZ037-044-045-052-053-291000-
   East Central Minnesota

CITY           SKY/WX    TMP DP  RH WIND       PRES   REMARKS
PRINCETON      PTCLDY     5  -2  72 N7        30.42S WCI  -7
MORA           CLEAR      3  -4  72 N3        30.44S
CAMBRIDGE      PTCLDY     5  -4  66 N3        30.42R
RUSH CITY      PTCLDY     2  -4  76 N3        30.43S
MOOSE LAKE     CLEAR      0  -8  71 N5        30.41R WCI -10
CLOQUET        CLEAR     -4  -9  77 NW9       30.39R WCI -20
MCGREGOR       CLEAR      0  -6  78 NW8       30.43R WCI -15
$$
MNZ071>073-080-081-089-090-097-098-291000-
   Southwest Minnesota

CITY           SKY/WX    TMP DP  RH WIND       PRES   REMARKS
MONTEVIDEO     PTCLDY     9   3  78 NE10      30.45R WCI  -6
GRANITE FALLS  MOCLDY    11   4  72 N8        30.44R WCI  -1
CANBY          PTCLDY     3  -1  83 NW9       30.45R WCI -11
MARSHALL       MOCLDY     7   1  78 N13       30.41R WCI  -9
REDWOOD FALLS  MOCLDY    11   2  67 NE5       30.42R WCI   3
OLIVIA         PTCLDY    10   5  79 N7        30.41R WCI   0
PIPESTONE      CLOUDY     9   5  85 NE12G17   30.33R WCI  -6
WINDOM         LGT SNOW  12   7  79 N10       30.36R WCI  -1
WORTHINGTON    CLOUDY    10 -31  13 N12       30.34R WCI  -4
JACKSON        CLOUDY    14  10  85 N13       30.34R WCI   0
TRACY          CLOUDY    11   8  88 N9        30.39R WCI  -2
SLAYTON        CLOUDY     9   6  88 N14       30.35R FOG     WCI  -7
$$
MNZ065>067-074>077-082>085-091>093-291000-
   South Central Minnesota

CITY           SKY/WX    TMP DP  RH WIND       PRES   REMARKS
MANKATO        CLOUDY    12   1  62 NE7       30.38S WCI   2
NEW ULM        CLOUDY    10   1  67 NE7       30.40R WCI   0
ST JAMES       CLOUDY    12   7  79 N8        30.40R WCI   1
FAIRMONT       CLOUDY    16  10  79 N10       30.35R WCI   3
GLENCOE        CLOUDY     9   2  73 N6        30.41R WCI   0
FARIBAULT      CLOUDY    10   1  67 NE5       30.38S WCI   2
OWATONNA       CLOUDY    10   1  67 N8        30.37R WCI  -1
ALBERT LEA     CLOUDY    16  10  79 N8        30.34S WCI   5
$$
MNZ078>079-086>088-094>096-291000-
   Southeast Minnesota

CITY           SKY/WX    TMP DP  RH WIND       PRES   REMARKS
ROCHESTER      CLOUDY    12   6  77 N6        30.35R WCI   3
RED WING       CLOUDY    10   0  61 N3        30.41R
STANTON        CLOUDY    11   1  66 NE7       30.39R WCI   0
DODGE CENTER   CLOUDY    10   5  79 N7        30.34R WCI   0
WINONA         CLOUDY    14  10  85 NW5       30.40R WCI   6
AUSTIN         CLOUDY    14   9  79 NE7       30.34R WCI   4
PRESTON        CLOUDY    13   9  83 N6        30.34R WCI   4
$$
ABBREVIATIONS USED IN REMARKS
   TC - TEMPERATURES IN CELSIUS
  WCI - WIND CHILL INDEX
   HX - HEAT INDEX
  VSB - VISIBILITY
$$


USA.gov is the U.S. government's official web portal to all federal, state and local government web resources and services.